YAOGAN-30 U

Last updated on Thu Nov 26 2020 00:02:02 GMT+0000 (Coordinated Universal Time)

1 46807U 20076A 20330.53704880 .00000305 00000-0 33941-4 0 9995 2 46807 34.9976 62.6231 0000584 263.1797 96.8852 14.89812087 4456
UTC large
Height (km)
Speed (km/s)
/
Latitude / Longitude
Inclination (degrees)
Orbital Period (minutes)
Azimuth
Elevation
Range (km)
Doppler Factor

Next 0 passes for location: London (51.5072 / 0.1276)

Sorry there are no passes over London.